Temperature
20 21 21 22 21 20 20 19 19 19 18 19 18 18 19 19 20 20 20 20 21 21 21 21 21 21 21 21 20 20 19 19 19 19 18 18 18 18 18 17 17 17 17 17
21 21 21 21 21 20 20 19 19 19 18 18 18 19 18 18 19 19 20 20 20 21 21 21 21 21 20 20 20 19 19 19 19 18 18 18 18 18 17 17 17 17 17 17
19 20 21 20 20 20 20 19 19 19 18 17 17 17 18 18 18 19 20 20 20 20 20 20 20 20 20 19 19 19 18 18 18 18 18 18 18 17 17 17 17 16 16 16
17 19 20 19 20 20 19 18 18 18 17 17 17 18 19 19 19 19 19 20 20 20 20 20 20 20 19 19 19 18 18 18 18 18 18 17 17 17 17 17 16 16 16 16
15 17 18 19 19 19 19 18 18 17 17 17 18 18 18 18 19 19 19 19 19 20 20 19 19 19 19 18 18 18 18 18 17 17 17 17 17 17 17 16 16 16 16 16
15 18 18 19 19 19 19 18 18 17 17 17 17 16 17 19 19 19 19 19 19 19 19 19 18 18 18 18 17 17 17 17 17 17 16 16 16 16 16 16 16 16 16 15
15 17 17 18 18 19 19 18 18 18 18 17 17 17 19 19 18 19 18 18 18 18 18 18 18 17 17 17 17 17 16 16 16 16 16 16 16 16 15 15 15 15 15 15
14 16 17 17 17 18 17 18 18 18 18 18 18 18 18 18 18 18 18 18 18 18 17 17 17 17 17 17 16 16 16 16 16 16 15 15 15 15 15 15 15 15 15 15
14 15 15 16 17 18 19 18 18 19 19 18 18 18 18 18 18 17 17 17 17 17 16 16 16 16 16 16 15 15 15 15 15 15 15 15 15 15 14 14 14 14 14 14
13 14 15 16 17 18 18 18 18 18 18 18 18 18 17 17 17 17 17 16 16 16 16 16 15 15 15 14 14 14 14 14 14 14 14 14 14 14 14 14 13 13 13 13
13 14 15 17 17 18 18 18 18 18 18 18 18 17 17 17 16 16 16 16 16 16 15 15 15 14 14 14 14 14 14 14 13 13 13 13 13 13 13 13 13 13 13 13
13 15 14 16 17 17 17 17 18 18 17 17 17 17 16 16 16 15 15 15 15 15 15 14 14 14 14 13 13 13 13 13 13 13 13 13 13 13 13 12 12 12 12 12
16 16 16 16 17 17 17 17 17 17 17 16 16 16 16 15 15 15 14 14 14 14 14 14 13 13 13 13 13 13 13 13 13 12 12 12 12 12 12 12 12 12 12 11
16 16 16 16 16 16 16 16 16 16 16 16 16 15 15 15 14 14 14 14 14 13 13 13 13 13 13 13 12 12 12 12 12 12 11 11 11 11 11 11 11 11 11 11
16 16 16 16 16 16 16 16 16 15 15 15 15 15 15 14 14 14 13 13 13 13 13 12 12 12 12 12 12 12 12 12 11 11 11 11 11 11 11 11 10 11 11 11
16 16 15 15 15 15 15 15 15 15 15 15 14 14 14 14 13 13 13 13 13 12 12 12 12 12 12 11 11 11 11 11 11 11 11 10 10 10 10 10 10 10 10 10
15 14 15 15 15 15 15 15 15 15 14 14 14 14 13 13 13 13 12 12 12 12 12 11 11 11 11 11 11 11 11 10 10 10 10 10 10 10 10 10 10 10 10 9
15 15 15 15 15 14 14 14 14 14 14 14 13 13 13 13 12 12 12 12 11 11 11 11 11 11 11 11 10 10 10 10 10 10 10 10 9 9 9 9 9 9 9 9
15 15 15 14 14 14 14 14 14 13 13 13 13 13 12 12 12 12 11 11 11 11 11 11 11 10 10 10 10 10 10 10 10 9 9 9 9 9 9 9 9 9 9 9
14 14 14 14 14 14 14 13 13 13 13 13 12 12 12 12 11 11 11 11 11 11 10 10 10 10 10 10 10 10 9 9 9 9 9 9 9 9 9 8 8 8 8 8
14 14 14 13 13 13 13 13 13 12 12 12 12 12 12 11 11 11 11 10 10 10 10 10 10 10 10 9 9 9 9 9 9 9 9 8 8 8 8 8 8 8 8 8
13 13 13 13 13 13 12 12 12 12 12 12 11 11 11 11 11 10 10 10 10 10 10 9 9 9 9 9 9 9 9 8 8 8 8 8 8 8 8 7 7 7 7 7
13 13 12 12 12 12 12 12 12 12 12 11 11 11 11 10 10 10 10 10 10 9 9 9 9 9 9 9 9 8 8 8 8 8 8 8 8 7 7 7 7 7 7 7
12 12 12 12 12 12 12 11 11 11 11 11 11 11 10 10 10 10 9 9 9 9 9 9 9 9 9 8 8 8 8 8 8 7 7 7 7 7 7 7 7 7 7 6
12 12 12 12 12 12 11 11 11 11 11 11 11 10 10 10 10 10 10 9 9 9 9 9 8 8 8 8 8 8 8 7 7 7 7 7 7 7 7 7 6 6 6 6
12 12 12 12 11 11 11 11 11 11 11 11 11 10 10 10 10 10 9 9 9 9 8 8 8 8 8 8 7 7 7 7 7 7 7 7 7 6 6 6 6 6 6 6
11 11 11 11 11 11 11 11 11 11 11 10 10 10 10 10 10 9 9 9 9 8 8 8 8 8 7 7 7 7 7 7 7 7 6 6 6 6 6 6 6 6 6 6
Wind_Speed
4 3 4 3 4 5 5 8 8 8 7 8 5 4 3 1 1 3 2 2 2 2 2 2 2 2 2 2 3 3 3 3 3 3 3 3 3 3 3 3 4 4 4 4
1 1 2 1 2 5 5 4 4 3 5 5 2 1 1 1 2 3 2 2 2 2 2 2 3 3 3 2 1 2 2 2 2 2 2 2 3 3 2 3 3 2 3 3
3 2 2 3 5 5 4 3 6 6 7 2 1 2 3 3 3 3 3 3 3 3 3 3 3 3 3 3 2 1 1 2 2 2 2 3 3 2 3 3 3 3 3 3
3 3 5 8 3 4 4 2 4 4 4 5 4 3 2 2 4 3 2 2 1 1 1 1 1 1 2 2 2 2 2 3 2 2 3 2 2 3 3 3 3 4 4 4
5 4 3 4 2 4 4 2 1 4 3 4 4 4 3 1 1 2 2 2 1 1 2 1 1 1 2 1 1 1 2 2 2 2 3 3 3 4 3 3 4 4 4 5
5 5 7 7 3 1 5 2 3 4 5 5 6 3 3 2 1 1 1 1 1 1 2 2 1 2 3 1 0 1 2 3 3 3 3 3 4 3 2 3 4 4 5 5
4 4 6 5 3 3 4 7 4 5 6 7 6 6 4 2 1 1 1 2 2 3 2 1 1 2 2 1 1 2 2 2 2 2 2 3 3 2 2 3 4 4 5 5
4 3 6 3 2 6 6 2 4 4 5 5 4 2 2 3 2 2 2 3 3 3 2 2 2 2 1 1 2 2 1 2 2 2 2 2 2 2 3 3 3 4 4 4
6 6 5 3 4 4 3 3 2 3 4 5 4 2 2 2 2 2 2 2 2 2 2 2 2 1 0 3 2 2 1 2 3 3 2 2 2 3 2 2 3 3 3 4
1 4 4 4 2 1 1 2 2 3 4 5 5 4 4 3 2 2 1 1 2 3 2 1 2 1 1 2 2 2 2 2 3 3 3 3 2 2 2 3 3 3 3 4
2 5 3 4 2 1 0 2 3 2 2 4 5 4 4 3 3 2 1 1 1 2 1 1 1 2 2 2 1 1 2 3 3 3 3 3 3 2 3 3 3 4 4 4
6 6 4 5 4 1 1 1 2 3 2 1 3 4 3 3 2 2 2 1 1 1 1 1 1 2 3 3 1 1 2 3 3 3 3 3 3 4 3 3 4 4 5 5
5 4 4 3 2 1 1 1 1 2 3 3 2 3 4 2 2 2 2 2 2 2 2 1 1 2 3 2 1 1 3 3 3 3 3 3 3 3 5 5 4 5 5 6
4 2 1 1 1 1 1 1 1 1 1 3 3 3 3 2 2 2 2 3 2 2 1 1 1 3 4 2 2 2 3 4 3 3 3 3 3 4 4 4 5 5 5 6
2 2 4 2 1 1 1 2 3 2 1 1 2 3 3 3 3 2 2 2 1 1 1 2 2 4 4 3 2 3 3 3 3 2 3 3 3 4 4 4 4 5 5 5
1 1 2 3 2 1 1 3 3 2 2 1 2 2 2 3 2 2 1 2 2 2 3 3 4 5 4 3 3 3 3 4 3 2 2 3 3 3 3 4 4 4 5 5
3 2 3 3 3 2 2 3 3 3 2 2 2 2 2 2 1 1 1 2 2 3 3 4 5 5 4 3 3 3 2 3 3 3 3 3 3 4 4 4 4 5 5 5
6 6 6 6 5 3 2 2 2 3 3 2 2 3 3 3 3 3 2 1 1 2 3 4 4 4 4 3 2 2 2 2 2 3 3 3 3 3 3 3 4 5 5 4
3 4 4 4 5 4 3 3 2 2 2 2 2 2 2 3 3 3 2 1 1 3 4 4 5 4 4 4 3 2 2 3 3 3 3 3 3 3 3 3 4 4 5 4
1 2 2 2 2 3 3 2 2 1 1 2 2 2 1 2 2 2 1 2 3 4 4 4 4 3 3 3 2 2 2 3 3 3 3 3 3 3 3 4 4 5 5 5
2 1 1 2 1 1 2 3 3 2 1 2 2 2 2 2 2 1 1 3 4 3 3 3 3 3 3 2 2 2 2 2 3 3 3 3 3 4 4 4 4 5 5 5
1 1 1 1 1 0 1 2 2 2 2 1 1 1 1 1 2 2 2 3 4 3 2 2 2 3 3 2 1 1 1 2 2 2 2 3 3 4 4 4 4 5 4 4
1 1 1 2 2 2 1 1 2 2 2 2 2 2 2 3 2 2 3 3 2 2 2 2 2 3 2 1 1 1 1 2 2 2 3 3 3 3 4 4 4 4 4 4
1 1 1 1 2 2 1 2 1 1 2 2 3 3 3 2 2 3 3 4 3 3 2 2 2 2 2 1 1 1 2 2 2 2 3 3 3 3 3 4 4 4 4 4
1 0 0 1 2 2 3 2 1 1 1 1 2 2 2 2 3 3 2 2 2 1 1 2 2 1 1 1 1 1 2 2 3 3 3 3 3 3 3 3 3 3 3 3
1 1 1 2 2 3 2 2 1 1 1 1 2 2 2 2 2 1 1 1 1 1 1 1 1 1 1 2 2 2 2 3 3 3 3 3 3 3 3 3 4 3 3 3
0 0 0 1 1 1 1 2 2 2 2 3 3 3 2 2 1 1 1 1 1 1 1 2 2 2 2 2 2 2 2 2 2 2 3 3 3 3 3 3 3 3 3 3
Wind_Direction
208 214 173 182 189 179 181 186 193 223 216 241 241 226 232 218 139 91 100 119 147 168 173 164 163 168 164 175 174 169 174 195 224 239 240 237 239 246 244 241 244 236 229 241
233 230 179 189 210 191 202 188 199 203 249 256 252 126 97 134 138 138 167 182 187 168 172 178 182 184 173 185 181 153 173 212 234 235 237 242 247 249 243 240 238 231 233 239
212 244 92 245 234 200 188 187 174 204 230 209 133 168 186 188 178 193 204 202 201 194 196 206 208 193 188 191 168 169 199 226 231 226 241 249 254 255 248 245 236 239 244 242
143 115 210 238 246 167 154 194 190 188 190 168 171 186 175 175 185 196 198 203 234 231 216 219 197 178 170 166 158 171 226 245 247 230 239 248 246 251 261 256 243 245 248 249
130 169 250 286 235 166 161 240 215 168 162 138 118 75 17 333 184 188 185 192 212 213 201 181 155 142 135 138 143 161 243 255 257 246 246 251 246 249 251 252 250 246 254 255
127 156 215 237 269 213 118 248 241 176 175 158 121 121 247 247 188 128 89 96 92 72 62 73 40 89 106 106 109 247 257 261 260 251 247 257 257 255 253 253 255 256 257 254
145 191 245 254 286 109 161 232 215 184 183 168 175 194 203 183 161 110 76 74 86 88 79 48 65 100 100 74 275 271 278 284 286 270 258 261 264 262 263 267 271 266 264 262
140 178 246 292 117 173 215 210 160 169 178 170 168 159 141 137 128 105 76 59 74 83 58 24 42 93 79 303 288 299 291 289 296 297 288 285 269 272 268 262 273 277 274 281
187 214 252 271 241 247 180 161 175 170 170 156 151 154 140 140 135 130 115 102 91 98 63 27 28 78 47 304 320 329 333 318 317 323 319 306 286 285 292 283 273 279 278 278
258 279 289 297 294 320 147 156 163 160 156 152 160 164 157 157 154 145 130 129 119 108 86 18 351 360 287 301 330 2 342 323 323 324 323 324 311 288 277 277 280 281 280 281
262 277 320 329 315 295 81 114 119 114 148 171 163 168 171 167 163 159 153 141 134 138 149 280 335 342 319 312 338 348 326 318 319 315 309 316 316 299 280 271 264 266 272 274
219 228 202 246 272 279 143 145 147 126 112 144 169 175 162 162 171 160 158 152 160 174 213 284 328 329 316 309 316 339 319 311 303 299 303 302 300 310 304 274 295 282 270 273
222 223 208 232 275 260 180 193 184 159 165 161 160 156 154 162 172 168 177 187 198 212 230 258 288 301 299 290 269 243 254 273 282 286 293 299 299 299 305 311 308 301 293 285
219 171 205 231 239 259 173 140 88 85 122 144 147 142 141 145 159 185 212 215 203 197 222 237 263 291 298 301 282 268 264 267 270 278 287 289 289 289 290 297 311 315 307 294
254 220 204 198 134 71 93 112 108 107 104 98 119 137 151 161 179 210 232 212 169 182 266 269 273 285 296 302 285 270 267 270 266 270 277 280 283 285 287 287 291 299 309 313
288 67 138 143 155 149 121 136 141 161 154 142 139 156 168 165 172 193 215 190 183 235 264 269 273 280 281 274 269 269 266 269 266 269 276 282 285 286 287 287 290 295 300 304
149 182 178 174 189 193 190 187 179 181 176 174 181 164 138 130 135 200 265 255 227 246 260 262 272 280 279 260 251 261 271 282 288 287 277 274 277 279 280 281 285 290 290 291
194 200 194 182 180 185 197 188 180 177 182 195 171 152 155 174 202 235 255 279 308 304 290 280 280 287 286 275 255 247 253 267 274 274 277 276 276 275 279 283 286 289 295 299
183 188 188 181 178 175 182 190 197 206 189 164 164 184 205 218 219 230 236 245 271 288 295 297 297 295 286 273 262 244 249 255 264 272 273 276 280 282 282 285 290 290 293 298
124 148 163 170 171 168 175 181 167 165 171 158 155 170 216 247 242 238 242 252 250 254 271 292 301 298 291 283 273 249 245 247 252 260 267 272 277 283 287 288 289 292 295 295
116 117 120 140 156 163 171 167 154 165 185 163 166 189 220 254 253 224 225 281 290 290 292 295 302 303 301 293 289 264 251 251 252 253 259 267 276 284 288 290 290 291 292 292
136 136 144 145 134 171 199 175 171 173 173 175 186 194 208 261 275 273 255 250 267 283 292 286 291 295 298 300 289 264 264 268 265 265 267 270 276 283 287 288 286 287 286 285
229 219 205 198 200 220 258 206 188 186 192 200 209 218 226 239 234 231 274 276 265 267 275 273 284 298 314 337 307 289 287 286 280 274 272 274 275 277 282 285 286 286 287 291
296 274 249 203 144 141 194 247 236 223 222 226 226 223 220 242 283 266 252 260 257 257 266 262 275 310 342 353 313 296 296 295 289 281 276 276 277 279 281 284 288 292 294 295
248 257 191 154 165 197 212 219 241 273 263 280 290 270 244 223 235 268 276 267 257 254 276 278 290 322 355 338 312 302 293 285 281 280 279 283 283 283 283 286 289 292 297 300
197 216 223 218 208 203 197 185 198 239 244 284 301 291 285 282 264 259 257 254 262 258 268 284 295 301 302 295 293 297 299 301 299 291 286 287 288 290 293 298 299 297 300 305
345 337 345 336 310 236 199 191 208 235 239 236 258 270 272 278 291 299 288 281 275 272 278 284 287 287 292 297 301 304 305 302 298 296 295 293 292 290 293 297 298 300 305 306
Height
1503 1501 1501 1502 1504 1507 1510 1514 1520 1516 1514 1507 1504 1503 1502 1502 1502 1503 1504 1505 1507 1508 1509 1511 1513 1515 1516 1518 1519 1520 1521 1522 1522 1523 1523 1523 1523 1523 1523 1523 1523 1523 1523 1523
1503 1500 1500 1503 1502 1503 1505 1507 1509 1510 1510 1501 1501 1502 1502 1502 1502 1503 1504 1505 1506 1507 1509 1510 1511 1513 1514 1516 1517 1518 1519 1520 1521 1520 1520 1520 1520 1519 1519 1519 1519 1519 1518 1519
1512 1504 1503 1511 1502 1501 1502 1501 1503 1508 1504 1500 1501 1501 1501 1501 1502 1502 1503 1504 1505 1506 1508 1509 1510 1511 1513 1514 1516 1517 1518 1518 1518 1518 1518 1517 1517 1516 1515 1515 1515 1515 1515 1515
1515 1511 1521 1507 1494 1494 1498 1498 1497 1497 1497 1498 1499 1500 1500 1501 1501 1501 1502 1503 1505 1506 1507 1508 1510 1511 1512 1513 1513 1514 1515 1515 1515 1515 1515 1515 1514 1513 1512 1512 1511 1511 1511 1511
1518 1519 1514 1502 1494 1494 1498 1500 1496 1496 1496 1497 1498 1500 1501 1501 1501 1502 1503 1503 1504 1505 1506 1507 1508 1509 1510 1510 1511 1512 1512 1512 1512 1512 1512 1511 1510 1510 1509 1508 1508 1508 1507 1507
1516 1517 1519 1503 1491 1489 1494 1503 1495 1494 1495 1496 1497 1504 1503 1501 1502 1503 1503 1504 1504 1505 1505 1506 1507 1507 1508 1508 1509 1509 1510 1510 1510 1510 1509 1508 1507 1507 1506 1505 1504 1504 1503 1503
1513 1513 1507 1494 1489 1490 1504 1501 1492 1492 1493 1495 1496 1497 1498 1500 1501 1502 1503 1503 1504 1504 1505 1505 1506 1506 1506 1506 1506 1507 1508 1508 1507 1507 1505 1505 1504 1503 1502 1501 1500 1499 1499 1498
1513 1512 1508 1490 1489 1493 1492 1488 1489 1490 1492 1493 1494 1496 1497 1498 1499 1501 1502 1502 1503 1503 1503 1504 1504 1504 1504 1503 1504 1505 1505 1505 1504 1503 1502 1501 1500 1499 1499 1497 1496 1495 1494 1493
1502 1502 1493 1489 1488 1487 1487 1487 1488 1489 1490 1492 1493 1495 1496 1498 1499 1500 1501 1501 1502 1502 1502 1502 1502 1502 1502 1502 1502 1502 1501 1501 1500 1499 1498 1498 1496 1495 1495 1493 1492 1491 1490 1489
1498 1493 1489 1487 1486 1486 1486 1486 1487 1488 1490 1491 1492 1493 1495 1497 1498 1499 1500 1500 1501 1501 1501 1501 1501 1500 1500 1499 1499 1498 1498 1497 1497 1496 1495 1494 1493 1492 1491 1490 1489 1487 1486 1485
1495 1491 1488 1486 1486 1486 1486 1486 1487 1488 1489 1490 1491 1492 1494 1495 1495 1497 1498 1499 1499 1499 1498 1499 1499 1498 1497 1497 1496 1494 1494 1494 1493 1492 1491 1490 1490 1489 1488 1487 1486 1484 1482 1481
1492 1487 1487 1486 1485 1486 1486 1486 1486 1487 1488 1489 1490 1491 1492 1493 1494 1495 1496 1497 1497 1496 1496 1496 1495 1495 1494 1494 1493 1492 1491 1491 1490 1489 1488 1487 1486 1485 1484 1483 1481 1480 1478 1478
1484 1484 1485 1484 1485 1485 1485 1486 1486 1486 1487 1487 1488 1490 1491 1491 1492 1493 1494 1494 1495 1494 1494 1494 1493 1492 1492 1491 1490 1490 1488 1488 1487 1485 1484 1483 1482 1481 1479 1478 1477 1476 1475 1473
1482 1483 1483 1483 1483 1484 1485 1485 1486 1486 1486 1487 1487 1488 1489 1490 1490 1491 1492 1492 1492 1492 1492 1491 1490 1490 1489 1488 1487 1487 1485 1484 1483 1482 1480 1479 1478 1477 1475 1474 1472 1471 1470 1469
1481 1482 1482 1482 1482 1483 1484 1484 1485 1485 1486 1486 1486 1487 1487 1488 1488 1489 1489 1489 1490 1489 1489 1488 1487 1486 1486 1485 1484 1483 1482 1481 1479 1478 1477 1476 1475 1473 1472 1470 1469 1467 1466 1464
1480 1480 1480 1481 1481 1482 1483 1483 1483 1484 1484 1485 1485 1485 1486 1486 1486 1486 1487 1487 1486 1486 1485 1484 1483 1483 1482 1481 1480 1479 1478 1477 1475 1474 1473 1472 1470 1469 1468 1466 1465 1463 1462 1460
1478 1478 1479 1479 1480 1481 1481 1482 1483 1483 1483 1484 1484 1484 1484 1484 1484 1484 1484 1483 1483 1482 1482 1481 1480 1479 1478 1477 1476 1475 1474 1473 1472 1470 1469 1468 1467 1465 1464 1462 1461 1459 1458 1457
1476 1476 1477 1478 1478 1480 1480 1481 1482 1482 1482 1482 1482 1482 1482 1482 1482 1481 1481 1480 1480 1479 1478 1477 1476 1475 1474 1473 1472 1471 1470 1469 1468 1466 1465 1464 1463 1461 1460 1459 1457 1456 1454 1453
1475 1476 1476 1477 1478 1479 1479 1480 1480 1480 1480 1481 1481 1481 1481 1480 1480 1479 1479 1478 1477 1476 1475 1474 1472 1471 1470 1469 1468 1467 1466 1465 1464 1462 1461 1460 1459 1458 1456 1455 1454 1452 1451 1449
1474 1475 1476 1476 1477 1478 1478 1479 1479 1479 1479 1479 1479 1479 1479 1479 1478 1477 1476 1475 1474 1473 1471 1470 1468 1467 1466 1465 1464 1462 1462 1461 1460 1459 1457 1456 1455 1454 1453 1451 1450 1449 1447 1446
1474 1474 1475 1475 1476 1477 1477 1478 1478 1477 1478 1478 1477 1477 1477 1476 1476 1475 1474 1473 1472 1470 1469 1467 1465 1464 1462 1461 1460 1459 1458 1457 1456 1455 1454 1453 1451 1450 1449 1447 1446 1445 1443 1442
1473 1474 1474 1475 1475 1475 1476 1476 1476 1476 1476 1476 1475 1475 1474 1474 1474 1473 1472 1471 1469 1468 1466 1464 1462 1461 1459 1458 1457 1455 1454 1453 1452 1451 1450 1449 1448 1446 1445 1443 1442 1441 1439 1438
1472 1473 1473 1474 1474 1474 1475 1475 1475 1475 1474 1474 1473 1473 1473 1472 1472 1470 1469 1468 1466 1465 1463 1462 1460 1459 1457 1456 1454 1453 1452 1450 1449 1448 1447 1445 1444 1443 1441 1440 1438 1437 1435 1434
1472 1472 1473 1473 1473 1473 1473 1473 1473 1473 1473 1473 1472 1472 1472 1471 1469 1468 1467 1465 1464 1462 1461 1460 1458 1457 1455 1453 1452 1450 1449 1447 1446 1445 1444 1442 1441 1439 1438 1436 1435 1433 1432 1430
1471 1471 1471 1471 1471 1471 1472 1472 1472 1472 1472 1471 1471 1471 1470 1469 1467 1466 1464 1463 1462 1460 1459 1458 1456 1455 1453 1452 1450 1449 1447 1445 1444 1442 1441 1439 1438 1436 1435 1433 1432 1430 1429 1427
1470 1470 1470 1470 1470 1470 1470 1470 1470 1470 1470 1469 1469 1469 1468 1467 1466 1464 1463 1461 1460 1459 1457 1456 1454 1453 1452 1450 1448 1447 1445 1443 1442 1440 1439 1437 1436 1434 1432 1431 1429 1428 1426 1425
1469 1469 1469 1469 1469 1469 1469 1469 1469 1469 1468 1468 1467 1467 1466 1465 1464 1462 1461 1459 1458 1456 1455 1454 1453 1452 1450 1449 1447 1445 1444 1442 1440 1439 1437 1435 1433 1432 1430 1429 1427 1426 1424 1422